[[{"header":{"parameterUnit":"m.s-1","parameterCategory":2,"la1":30.2991,"la2":30.254,"lo1":-89.0895,"lo2":-89.0444,"dy":0.0017,"dx":0.0017,"nx":28,"ny":28,"refTime":"2023-08-09T03:00:00:Z","depth":"0","parameterNumber":2,"parameterNumberName":"U-component_of_CURRENTS"},"data":[0,0,0,0,0,0,0,0,0,0,0,0,0,0,0,0,0,0,0,0,0,0,0,0,0,0,0,0,0,0,0,0,0,0,0,0,0,0,0,0,0,0,0,0,0,0,0,0,0,0,0,0,0,0,0,0,0,0,0.1547,0.1548,0,0.1589,0.1589,0.1589,0.1502,0.15,0.1498,0.1497,0.1538,0.1541,0.1544,0,0,0,0,0,0,0,0,0,0,0,0,0,0.139,0.1393,0.1547,0.1548,0.155,0.1589,0.1589,0.1589,0.1502,0.15,0.1498,0.1496,0.1537,0.1541,0.1544,0,0,0,0,0,0,0,0,0,0,0,0,0,0.1438,0.1394,0.1547,0.1519,0.1518,0.159,0.1589,0.1588,0.1503,0.15,0.1497,0.1495,0.1536,0.154,0.1545,0.1627,0,0,0.1558,0.156,0,0,0,0,0,0,0,0,0.1436,0.1443,0.1522,0.1521,0.152,0.1547,0.155,0.1605,0.1504,0.1498,0.1496,0.1493,0.155,0.1553,0.1552,0.1629,0.1631,0.1558,0.1561,0.1562,0.1564,0,0,0,0,0,0,0,0.1432,0.1441,0.1553,0.1524,0.1523,0.1506,0.1508,0.1559,0.1531,0.1498,0.1494,0.1517,0.1548,0.1548,0.1553,0.1632,0.1558,0.1562,0.1564,0.1566,0.1821,0.1825,0,0,0,0,0,0,0.1452,0.1438,0.1552,0.1555,0.1482,0.1511,0.1514,0.1532,0.153,0.153,0.1519,0.1513,0.1542,0.1548,0.1554,0.169,0.1562,0.1566,0.1569,0.1816,0.1821,0.1826,0,0,0,0,0,0,0.1449,0.1462,0.155,0.1506,0.1517,0.1518,0.1539,0.1535,0.1543,0.1548,0.1545,0.1533,0.154,0.1548,0.1594,0.1689,0.1568,0.1572,0.1811,0.1818,0.1824,0.1938,0,0,0,0,0,0,0.1444,0.146,0.1476,0.1507,0.1521,0.1601,0.1543,0.1538,0.1566,0.1558,0.1561,0.156,0.1539,0.1588,0.1599,0.1693,0.1576,0.1806,0.1814,0.1822,0.1929,0.1947,0.1963,0,0,0,0,0,0.1438,0.1473,0.1476,0.1491,0.1544,0.1604,0.1608,0.1592,0.157,0.1585,0.1577,0.156,0.1647,0.1594,0.1606,0.1703,0.1802,0.1812,0.1821,0.1921,0.1944,0.1963,0,0,0,0,0,0,0.1404,0.1471,0.1473,0.1524,0.1568,0.1593,0.1606,0.1616,0.1623,0.1607,0.1597,0.1598,0.1679,0.1682,0.1624,0.1804,0.1732,0.1744,0.1804,0.1826,0.1843,0.1827,0.1579,0,0,0,0,0,0.1414,0.1457,0.1515,0.1554,0.1575,0.1599,0.1621,0.1624,0.1643,0.1641,0.1654,0.168,0.1734,0.1763,0.1795,0.1893,0.1927,0.1972,0.199,0.2004,0.2002,0.2146,0.2175,0.1857,0.1857,0.1857,0,0,0.142,0.1456,0.1483,0.1551,0.1569,0.1634,0.1601,0.1646,0.1704,0.1653,0.1717,0.1735,0.177,0.1861,0.1903,0.1872,0.2118,0.2016,0.2027,0.2018,0.2159,0.219,0.2217,0.1863,0.1862,0.1861,0,0,0.1459,0.1475,0.1531,0.1575,0.1633,0.1657,0.1683,0.1733,0.1747,0.1832,0.1811,0.1876,0.1959,0.1996,0.2031,0.2174,0.2196,0.2209,0.2294,0.2435,0.2462,0.2485,0.2584,0.2615,0.2228,0.2228,0.2228,0,0.1482,0.1534,0.1556,0.1621,0.1671,0.1679,0.176,0.1791,0.1853,0.1895,0.1866,0.2015,0.2031,0.2165,0.2199,0.2215,0.228,0.2206,0.2456,0.2481,0.2503,0.2597,0.2631,0.2234,0.2234,0.2233,0.2232,0,0.1569,0.1607,0.1638,0.1726,0.1787,0.1845,0.1912,0.1964,0.1996,0.204,0.2166,0.219,0.2275,0.232,0.2297,0.2482,0.2471,0.2452,0.2396,0.2542,0.2632,0.2665,0.2244,0.2242,0.224,0.2238,0,0,0.1644,0.1698,0.1709,0.1742,0.1846,0.19,0.2011,0.2119,0.2181,0.2262,0.2376,0.2473,0.2472,0.251,0.2519,0.2633,0.2841,0.2611,0.2615,0.2694,0.3143,0.3158,0.3194,0.2876,0.2882,0.2887,0.3147,0,0.1712,0.1812,0.1848,0.195,0.2002,0.2061,0.216,0.2259,0.2323,0.2422,0.2499,0.259,0.2554,0.2595,0.2712,0.2789,0.2931,0.277,0.3001,0.3007,0.2992,0.3234,0.315,0.3378,0.3179,0.3184,0.3188,0,0.1812,0.1841,0.1949,0.2029,0.2065,0.2137,0.2279,0.2374,0.251,0.2563,0.2676,0.2713,0.2868,0.2817,0.3072,0.2974,0.3076,0.3145,0.3157,0.3147,0.3085,0.32,0.3444,0.3251,0.3238,0.3234,0.323,0,0.1845,0.193,0.1999,0.2034,0.2134,0.2198,0.2273,0.2412,0.2497,0.2646,0.2726,0.2885,0.2984,0.3141,0.3257,0.3194,0.3539,0.3472,0.3596,0.3595,0.3554,0.3541,0.3623,0.371,0.3709,0.3708,0.3707,0,0.1933,0.1975,0.1992,0.2028,0.2096,0.2197,0.2306,0.2396,0.255,0.2661,0.2779,0.2898,0.3079,0.3268,0.3353,0.3587,0.3637,0.3668,0.37,0.3593,0.3581,0.3429,0.3343,0.3718,0.3716,0.3714,0.3712,0,0.1994,0.2002,0.2039,0.2092,0.2108,0.2162,0.2294,0.2373,0.2524,0.2683,0.2745,0.2973,0.3218,0.3397,0.3666,0.3732,0.3843,0.3996,0.3836,0.3846,0.3746,0.3671,0.3758,0.3704,0.4189,0.4192,0.4194,0,0.2035,0.2062,0.2062,0.2038,0.205,0.2121,0.2179,0.2335,0.2432,0.2713,0.2798,0.3089,0.3265,0.3672,0.3881,0.4126,0.3953,0.4169,0.4042,0.3791,0.3732,0.3562,0.3495,0.4037,0.4037,0.4038,0.4038,0,0.2086,0.2074,0.2091,0.2031,0.2033,0.2072,0.2169,0.2244,0.2456,0.2604,0.2832,0.3001,0.3437,0.3631,0.3975,0.4141,0.3965,0.4187,0.3997,0.3706,0.3463,0.3405,0.3766,0.4043,0.4042,0.4042,0.4042,0.4041,0.2077,0.2089,0.2067,0.2025,0.1998,0.2008,0.2054,0.2175,0.2322,0.2543,0.2749,0.2952,0.3271,0.3755,0.3889,0.4048,0.4057,0.3976,0.3937,0.3808,0.3667,0.4026,0.4284,0.4285,0.4285,0.4286,0.4287,0,0.2032,0.2066,0.2053,0.198,0.1935,0.1947,0.2034,0.2086,0.2211,0.241,0.2596,0.2858,0.311,0.3383,0.3723,0.3724,0.3646,0.3687,0.3387,0.3362,0.3755,0.365,0.3698,0.3698,0.3698,0.3698,0.3699,0.3699,0.1991,0.1994,0.2021,0.1924,0.1879,0.1846,0.1881,0.1952,0.2068,0.2231,0.2361,0.2525,0.2863,0.319,0.331,0.3345,0.3112,0.3106,0.3068,0.3245,0.3264,0.3281,0.3158,0.3102,0.3101,0.2561,0.2557,0.2554]},{"header":{"parameterUnit":"m.s-1","parameterCategory":2,"la1":30.2991,"la2":30.254,"lo1":-89.0895,"lo2":-89.0444,"dy":0.0017,"dx":0.0017,"nx":28,"ny":28,"refTime":"2023-08-09T03:00:00:Z","depth":"0","parameterNumber":3,"parameterNumberName":"V-component_of_CURRENTS"},"data":[0,0,0,0,0,0,0,0,0,0,0,0,0,0,0,0,0,0,0,0,0,0,0,0,0,0,0,0,0,0,0,0,0,0,0,0,0,0,0,0,0,0,0,0,0,0,0,0,0,0,0,0,0,0,0,0,0,0,-0.019,-0.019,0,-0.0279,-0.0281,-0.0283,-0.0368,-0.0368,-0.0368,-0.0368,-0.0381,-0.0381,-0.0381,0,0,0,0,0,0,0,0,0,0,0,0,0,-0.0158,-0.0158,-0.019,-0.019,-0.019,-0.0279,-0.0281,-0.0283,-0.0368,-0.0368,-0.0368,-0.0368,-0.0381,-0.0381,-0.0382,0,0,0,0,0,0,0,0,0,0,0,0,0,-0.0211,-0.0159,-0.019,-0.0235,-0.024,-0.0279,-0.0281,-0.0284,-0.0368,-0.0368,-0.0368,-0.0368,-0.0381,-0.0381,-0.0382,-0.038,0,0,-0.0383,-0.0383,0,0,0,0,0,0,0,0,-0.0208,-0.0214,-0.0229,-0.0232,-0.0237,-0.0303,-0.0274,-0.0309,-0.0368,-0.033,-0.0368,-0.0368,-0.0341,-0.0345,-0.0377,-0.0381,-0.0381,-0.0383,-0.0383,-0.0383,-0.0383,0,0,0,0,0,0,0,-0.0204,-0.0211,-0.0236,-0.0228,-0.0234,-0.0273,-0.0281,-0.0283,-0.034,-0.0333,-0.0337,-0.0331,-0.0344,-0.0377,-0.0377,-0.0381,-0.0383,-0.0383,-0.0383,-0.0383,-0.0283,-0.028,0,0,0,0,0,0,-0.0169,-0.0207,-0.0233,-0.0237,-0.0211,-0.0272,-0.0282,-0.029,-0.0342,-0.0347,-0.033,-0.0334,-0.0376,-0.0377,-0.0378,-0.0324,-0.0383,-0.0383,-0.0384,-0.0286,-0.0282,-0.0279,0,0,0,0,0,0,-0.0168,-0.0171,-0.0229,-0.0215,-0.0224,-0.0271,-0.0281,-0.0292,-0.0333,-0.0338,-0.0345,-0.0358,-0.0376,-0.0377,-0.0381,-0.0326,-0.0383,-0.0384,-0.0289,-0.0285,-0.0281,-0.0249,0,0,0,0,0,0,-0.0167,-0.0171,-0.0179,-0.0213,-0.0223,-0.024,-0.028,-0.0293,-0.0322,-0.0329,-0.0364,-0.0366,-0.0376,-0.0381,-0.0382,-0.0328,-0.0384,-0.0293,-0.0287,-0.0282,-0.0254,-0.0244,-0.0236,0,0,0,0,0,-0.0166,-0.0151,-0.0179,-0.0182,-0.0228,-0.0239,-0.0249,-0.029,-0.0323,-0.0332,-0.0361,-0.0365,-0.0344,-0.0381,-0.0382,-0.0327,-0.0295,-0.0289,-0.0282,-0.0258,-0.0246,-0.0236,0,0,0,0,0,0,-0.0114,-0.0158,-0.019,-0.0184,-0.0209,-0.0249,-0.0252,-0.0293,-0.0331,-0.0331,-0.0364,-0.0367,-0.0345,-0.0336,-0.0375,-0.0273,-0.0305,-0.0299,-0.0285,-0.0275,-0.0266,-0.0233,-0.0384,0,0,0,0,0,-0.0111,-0.0128,-0.0164,-0.0156,-0.0169,-0.0221,-0.0237,-0.026,-0.0286,-0.0307,-0.0334,-0.0331,-0.0317,-0.0301,-0.0299,-0.0259,-0.0264,-0.0207,-0.0198,-0.0191,-0.016,-0.0147,-0.0136,-0.0258,-0.0258,-0.0258,0,0,-0.0083,-0.0108,-0.0116,-0.0149,-0.0177,-0.0176,-0.0234,-0.0236,-0.0226,-0.0295,-0.0298,-0.0322,-0.0306,-0.0267,-0.0249,-0.0252,-0.0161,-0.0183,-0.0178,-0.0149,-0.014,-0.0128,-0.0118,-0.0254,-0.0254,-0.0255,0,0,-0.0024,-0.0063,-0.0064,-0.0083,-0.0108,-0.0135,-0.0136,-0.0181,-0.0195,-0.0201,-0.0235,-0.0232,-0.0224,-0.02,-0.0183,-0.0114,-0.0134,-0.0095,-0.0008,0.0003,0.0012,0.002,0.0007,0.0014,-0.0068,-0.0068,-0.0068,0,-0.0004,-0.0,-0.0058,-0.0055,-0.0051,-0.0113,-0.0092,-0.0109,-0.0148,-0.0136,-0.018,-0.0168,-0.0179,-0.0105,-0.0081,-0.0094,-0.0104,-0.0063,0.001,0.0018,0.0026,0.0011,0.0018,-0.0066,-0.0066,-0.0067,-0.0067,0,0.0051,0.0053,0.0065,0.0035,0.0032,0.0048,0.0027,0.0019,-0.0012,-0.0024,0.0006,-0.003,-0.0008,-0.0004,-0.0027,0.0051,0.0017,-0.0008,-0.003,0.0039,0.002,0.0026,-0.0063,-0.0064,-0.0064,-0.0065,0,0,0.0085,0.0091,0.009,0.0105,0.0082,0.0093,0.0125,0.0141,0.0172,0.0138,0.0183,0.0188,0.0155,0.0175,0.0147,0.0162,0.0179,0.0112,0.0111,0.0078,0.0185,0.0161,0.0165,0.0155,0.0157,0.0158,0.0139,0,0.0133,0.0167,0.0159,0.0214,0.0235,0.0212,0.0252,0.0269,0.0261,0.0285,0.0279,0.0301,0.0234,0.0239,0.0244,0.0195,0.0204,0.0186,0.0145,0.0144,0.0096,0.0176,0.0223,0.0212,0.0146,0.0147,0.0147,0,0.0184,0.0198,0.0251,0.0312,0.0319,0.0346,0.0396,0.0428,0.0461,0.0458,0.0476,0.0449,0.0478,0.0394,0.0369,0.0356,0.0289,0.0239,0.0237,0.0218,0.0135,0.0141,0.0226,0.005,0.0157,0.0156,0.0156,0,0.0238,0.0278,0.0324,0.0334,0.0376,0.0415,0.0445,0.0483,0.0533,0.0569,0.0605,0.0602,0.0617,0.0545,0.044,0.0407,0.039,0.0328,0.0246,0.0241,0.0282,0.0278,0.0182,0.0319,0.0319,0.0319,0.0319,0,0.0297,0.0341,0.0351,0.0378,0.0451,0.0474,0.0562,0.0584,0.0649,0.0739,0.0703,0.0768,0.0656,0.0626,0.0501,0.0406,0.0439,0.0289,0.0254,0.0292,0.029,0.0138,0.0047,0.0318,0.0318,0.0319,0.0319,0,0.036,0.036,0.0421,0.0462,0.048,0.0534,0.0628,0.0696,0.0748,0.0862,0.0887,0.0909,0.0879,0.0748,0.0636,0.0504,0.0317,0.0345,0.0385,0.0356,0.0105,0.0017,-0.0059,-0.0122,0.0262,0.0261,0.0261,0,0.0388,0.0425,0.0469,0.0496,0.0515,0.0591,0.0653,0.0726,0.0812,0.096,0.1033,0.1051,0.1089,0.0911,0.0684,0.048,0.0327,0.0367,0.0321,0.0128,0.0003,-0.0063,-0.0116,0.0373,0.0374,0.0374,0.0374,0,0.0449,0.0461,0.0496,0.0547,0.0603,0.0695,0.0801,0.0889,0.1009,0.1126,0.1278,0.1328,0.118,0.1028,0.0743,0.0586,0.0269,0.0368,0.018,0.011,0.0029,-0.0061,0.0314,0.0379,0.0379,0.0378,0.0378,0.0378,0.0473,0.0511,0.0549,0.0607,0.0677,0.0812,0.0935,0.1066,0.1244,0.1475,0.1471,0.1583,0.1317,0.0956,0.0716,0.0282,0.0272,0.0157,0.0072,0.0026,-0.0041,0.0331,0.0344,0.0343,0.0343,0.0342,0.0342,0,0.0493,0.055,0.0612,0.07,0.0807,0.0842,0.1043,0.1202,0.1444,0.1607,0.1752,0.1671,0.1329,0.0929,0.0359,0.0046,-0.0071,-0.0131,-0.0212,-0.0249,0.0102,0.0098,0.0046,0.0046,0.0047,0.0047,0.0047,0.0047,0.0506,0.0575,0.0625,0.0797,0.0883,0.109,0.1234,0.1462,0.1627,0.1877,0.1943,0.196,0.1651,0.0576,-0.0124,-0.0278,-0.0525,-0.0537,-0.0695,-0.0476,-0.0456,-0.0437,-0.0464,-0.0633,-0.0633,-0.098,-0.0984,-0.0987]}],[{"header":{"parameterUnit":"m.s-1","parameterCategory":2,"la1":30.2991,"la2":30.254,"lo1":-89.0895,"lo2":-89.0444,"dy":0.0017,"dx":0.0017,"nx":28,"ny":28,"refTime":"2023-08-09T03:00:00:Z","depth":"2","parameterNumber":2,"parameterNumberName":"U-component_of_CURRENTS"},"data":[0,0,0,0,0,0,0,0,0,0,0,0,0,0,0,0,0,0,0,0,0,0,0,0,0,0,0,0,0,0,0,0,0,0,0,0,0,0,0,0,0,0,0,0,0,0,0,0,0,0,0,0,0,0,0,0,0,0,0.0041,0.0038,0,0.008,0.0084,0.0088,0.0429,0.0433,0.0438,0.0442,0.058,0.058,0.058,0,0,0,0,0,0,0,0,0,0,0,0,0,0.0087,0.0089,0.0041,0.0037,0.0034,0.0079,0.0084,0.0089,0.0428,0.0433,0.0439,0.0444,0.058,0.058,0.058,0,0,0,0,0,0,0,0,0,0,0,0,0,0.0134,0.009,0.0042,0.0175,0.0185,0.0078,0.0084,0.009,0.0427,0.0434,0.044,0.0446,0.058,0.058,0.0579,0.0447,0,0,0.0578,0.0578,0,0,0,0,0,0,0,0,0.0131,0.0138,0.0159,0.0165,0.0175,0.0216,0.0148,0.0199,0.0425,0.0383,0.0442,0.0449,0.0433,0.0445,0.0501,0.0453,0.0459,0.0578,0.0578,0.0577,0.0577,0,0,0,0,0,0,0,0.0128,0.0136,0.0103,0.0154,0.0163,0.0169,0.0191,0.0162,0.0408,0.0387,0.0401,0.0331,0.0446,0.0501,0.0506,0.0461,0.0578,0.0577,0.0577,0.0577,0.0583,0.0583,0,0,0,0,0,0,0.0034,0.0134,0.01,0.0099,0.0117,0.0161,0.0186,0.0234,0.0407,0.0425,0.0325,0.0345,0.0499,0.0507,0.0512,0.069,0.0577,0.0577,0.0577,0.0582,0.0583,0.0583,0,0,0,0,0,0,0.0037,0.0035,0.0098,0.0074,0.0077,0.015,0.0202,0.023,0.0351,0.035,0.0383,0.0419,0.0504,0.0513,0.0627,0.0685,0.0577,0.0576,0.0582,0.0582,0.0583,0.0834,0,0,0,0,0,0,0.0041,0.004,0.0066,0.0071,0.0073,0.0092,0.0191,0.0224,0.027,0.0303,0.0436,0.0455,0.051,0.0629,0.0627,0.0682,0.0576,0.0581,0.0582,0.0583,0.0825,0.0843,0.0858,0,0,0,0,0,0.0045,0.0051,0.0071,0.0063,0.0105,0.0086,0.0098,0.0195,0.0268,0.0335,0.0476,0.0455,0.063,0.0631,0.0628,0.0685,0.0581,0.0582,0.0583,0.0817,0.0839,0.0858,0,0,0,0,0,0,0.0106,0.008,0.0106,0.0116,0.011,0.0129,0.0162,0.0199,0.0359,0.041,0.0488,0.0515,0.064,0.0586,0.0585,0.0674,0.0584,0.0585,0.0763,0.0783,0.08,0.0759,0.0575,0,0,0,0,0,0.0101,0.0099,0.0084,0.0079,0.0101,0.0138,0.0142,0.0188,0.0272,0.0357,0.0455,0.0531,0.0615,0.0652,0.0702,0.073,0.0698,0.0744,0.0761,0.0777,0.0733,0.0812,0.0835,0.0587,0.0587,0.0587,0,0,0.0136,0.0076,0.0103,0.0083,0.0121,0.013,0.0181,0.0191,0.0223,0.0323,0.0491,0.0602,0.0639,0.0757,0.0792,0.0737,0.0831,0.0778,0.0793,0.0739,0.0816,0.0841,0.0864,0.0587,0.0587,0.0587,0,0,0.0099,0.016,0.0144,0.016,0.0115,0.0122,0.0125,0.0192,0.0296,0.0383,0.0517,0.0679,0.0738,0.0854,0.0891,0.0979,0.0935,0.0966,0.1014,0.1097,0.1119,0.1138,0.1153,0.1172,0.0957,0.0958,0.0958,0,0.0086,0.0113,0.0133,0.0115,0.0122,0.0127,0.0148,0.0205,0.03,0.0407,0.0452,0.0719,0.078,0.0953,0.1032,0.1025,0.1037,0.0969,0.1128,0.1146,0.1161,0.1171,0.1189,0.097,0.0969,0.0967,0.0966,0,0.0082,0.0105,0.0107,0.0098,0.012,0.0127,0.0169,0.0249,0.0336,0.0427,0.0656,0.0802,0.0992,0.1016,0.1064,0.1217,0.1181,0.1175,0.1101,0.1204,0.1204,0.1219,0.0988,0.0983,0.098,0.0977,0,0,0.0019,0.0078,0.0086,0.0123,0.0129,0.0147,0.0204,0.0298,0.0411,0.0548,0.0757,0.0943,0.1112,0.1157,0.1267,0.1299,0.147,0.129,0.1289,0.1342,0.1623,0.1428,0.1423,0.1531,0.1534,0.1536,0.1591,0,-0.0007,-0.0019,0.0019,0.0065,0.0113,0.0177,0.0242,0.034,0.0474,0.0687,0.0863,0.1107,0.1135,0.1313,0.1375,0.1466,0.1512,0.1451,0.1474,0.1471,0.1323,0.1435,0.1411,0.1442,0.1604,0.1606,0.1607,0,-0.0018,-0.0025,0.0038,0.0113,0.0156,0.0189,0.0362,0.0415,0.0664,0.0803,0.1066,0.1267,0.148,0.1457,0.1617,0.1595,0.1627,0.1616,0.162,0.134,0.1301,0.1354,0.146,0.1629,0.1627,0.1626,0.1624,0,-0.0049,-0.0012,0.0043,0.0088,0.0179,0.0263,0.0308,0.0508,0.0623,0.0942,0.1097,0.1392,0.1554,0.1653,0.1725,0.1724,0.1789,0.1804,0.1626,0.1611,0.1528,0.1499,0.1867,0.1867,0.1867,0.1867,0.1867,0,-0.0093,-0.004,0.0067,0.0116,0.0252,0.0304,0.0466,0.0577,0.0775,0.0975,0.1215,0.1402,0.1604,0.1722,0.1768,0.1723,0.1863,0.1623,0.1621,0.1608,0.1586,0.1674,0.1651,0.1869,0.1868,0.1868,0.1868,0,-0.0114,-0.0046,0.0027,0.0159,0.0253,0.0357,0.053,0.0633,0.079,0.105,0.1183,0.1434,0.1566,0.1668,0.1785,0.1728,0.1737,0.1675,0.1599,0.1582,0.1494,0.1483,0.1523,0.1517,0.1511,0.1507,0.1503,0,-0.0131,-0.0094,0.0079,0.0225,0.0319,0.0477,0.059,0.0688,0.0802,0.1071,0.1203,0.14,0.1517,0.152,0.1544,0.1543,0.1601,0.1437,0.14,0.1469,0.1465,0.1462,0.1458,0.1425,0.1421,0.1418,0.1415,0,-0.0168,-0.0101,-0.003,0.0266,0.0439,0.0587,0.0749,0.0812,0.0953,0.1091,0.1282,0.1371,0.1394,0.1397,0.1308,0.1288,0.1444,0.1355,0.1542,0.1458,0.1366,0.1363,0.1367,0.1385,0.1388,0.1391,0.1392,0.1393,-0.0187,-0.0136,0.0014,0.0305,0.0534,0.0732,0.0825,0.0907,0.1017,0.121,0.1237,0.1292,0.1295,0.1152,0.1129,0.1129,0.116,0.1148,0.1166,0.1186,0.1108,0.1005,0.0941,0.0941,0.0942,0.0942,0.0942,0,-0.0129,-0.0076,0.0101,0.0402,0.0651,0.0813,0.099,0.0992,0.1096,0.1181,0.1238,0.1094,0.103,0.1076,0.1054,0.0949,0.1002,0.0904,0.1068,0.1094,0.1118,0.1044,0.0857,0.0857,0.0857,0.0857,0,0,-0.0081,0.0081,0.0154,0.0515,0.076,0.1024,0.115,0.1139,0.117,0.1089,0.1131,0.1067,0.1089,0.1031,0.096,0.0974,0.1033,0.0907,0.0977,0.1204,0.1229,0.1247,0.1157,0,0,0,0,0]},{"header":{"parameterUnit":"m.s-1","parameterCategory":2,"la1":30.2991,"la2":30.254,"lo1":-89.0895,"lo2":-89.0444,"dy":0.0017,"dx":0.0017,"nx":28,"ny":28,"refTime":"2023-08-09T03:00:00:Z","depth":"2","parameterNumber":3,"parameterNumberName":"V-component_of_CURRENTS"},"data":[0,0,0,0,0,0,0,0,0,0,0,0,0,0,0,0,0,0,0,0,0,0,0,0,0,0,0,0,0,0,0,0,0,0,0,0,0,0,0,0,0,0,0,0,0,0,0,0,0,0,0,0,0,0,0,0,0,0,-0.0319,-0.032,0,-0.0428,-0.0429,-0.043,-0.0524,-0.0525,-0.0526,-0.0527,-0.0582,-0.0583,-0.0583,0,0,0,0,0,0,0,0,0,0,0,0,0,-0.0251,-0.0251,-0.0319,-0.032,-0.0322,-0.0428,-0.0429,-0.0431,-0.0524,-0.0525,-0.0526,-0.0528,-0.0582,-0.0583,-0.0583,0,0,0,0,0,0,0,0,0,0,0,0,0,-0.0311,-0.0251,-0.0318,-0.0382,-0.0388,-0.0428,-0.0429,-0.0431,-0.0523,-0.0525,-0.0527,-0.0528,-0.0582,-0.0583,-0.0583,-0.0553,0,0,-0.0585,-0.0586,0,0,0,0,0,0,0,0,-0.0308,-0.0313,-0.0371,-0.0377,-0.0385,-0.0465,-0.0426,-0.047,-0.0523,-0.0471,-0.0527,-0.0529,-0.0537,-0.0542,-0.0558,-0.0556,-0.0558,-0.0585,-0.0586,-0.0586,-0.0586,0,0,0,0,0,0,0,-0.0303,-0.031,-0.0361,-0.0372,-0.0381,-0.0425,-0.0435,-0.0435,-0.0491,-0.0476,-0.0483,-0.0496,-0.0541,-0.0557,-0.056,-0.0559,-0.0585,-0.0586,-0.0586,-0.0586,-0.0602,-0.0602,0,0,0,0,0,0,-0.0287,-0.0305,-0.0358,-0.0364,-0.0351,-0.0425,-0.0436,-0.0437,-0.0493,-0.0504,-0.0495,-0.05,-0.0555,-0.0559,-0.0562,-0.0548,-0.0586,-0.0587,-0.0587,-0.0602,-0.0602,-0.0602,0,0,0,0,0,0,-0.0284,-0.029,-0.0353,-0.0339,-0.0351,-0.0424,-0.0425,-0.0438,-0.0461,-0.0508,-0.0518,-0.0505,-0.0557,-0.0561,-0.0599,-0.055,-0.0587,-0.0587,-0.0602,-0.0602,-0.0602,-0.0508,0,0,0,0,0,0,-0.0282,-0.0288,-0.028,-0.0337,-0.0351,-0.0387,-0.0423,-0.0439,-0.0467,-0.0475,-0.0519,-0.0527,-0.0558,-0.0598,-0.06,-0.0552,-0.0588,-0.0602,-0.0602,-0.0602,-0.0511,-0.0505,-0.05,0,0,0,0,0,-0.0279,-0.0284,-0.0278,-0.0285,-0.0337,-0.0387,-0.0398,-0.0456,-0.0465,-0.048,-0.0526,-0.0525,-0.0599,-0.06,-0.0601,-0.0552,-0.0602,-0.0602,-0.0602,-0.0514,-0.0506,-0.05,0,0,0,0,0,0,-0.0264,-0.0295,-0.0291,-0.0306,-0.0338,-0.0404,-0.0439,-0.0445,-0.049,-0.0498,-0.0535,-0.0546,-0.0556,-0.0578,-0.0578,-0.0562,-0.0594,-0.0595,-0.0527,-0.052,-0.0514,-0.0497,-0.0588,0,0,0,0,0,-0.0246,-0.0247,-0.0287,-0.0294,-0.0324,-0.0366,-0.0391,-0.041,-0.0458,-0.048,-0.0526,-0.0555,-0.0553,-0.0561,-0.0587,-0.0575,-0.0602,-0.0546,-0.054,-0.0534,-0.0525,-0.0543,-0.0537,-0.0602,-0.0602,-0.0602,0,0,-0.0237,-0.0256,-0.0254,-0.0288,-0.0333,-0.0353,-0.0388,-0.0424,-0.0433,-0.0474,-0.0532,-0.0541,-0.0552,-0.0554,-0.0556,-0.0566,-0.0533,-0.0535,-0.0529,-0.0523,-0.0542,-0.0536,-0.053,-0.0603,-0.0603,-0.0603,0,0,-0.023,-0.0249,-0.0251,-0.0277,-0.032,-0.0346,-0.0347,-0.0412,-0.045,-0.0482,-0.05,-0.0492,-0.0537,-0.0521,-0.0511,-0.0485,-0.0507,-0.0485,-0.0428,-0.0445,-0.0439,-0.0434,-0.0464,-0.0462,-0.0474,-0.0474,-0.0474,0,-0.0212,-0.0214,-0.0261,-0.0278,-0.0291,-0.0336,-0.0335,-0.038,-0.0442,-0.0445,-0.0502,-0.0504,-0.0514,-0.0447,-0.0444,-0.0463,-0.0494,-0.0444,-0.0434,-0.043,-0.0426,-0.0458,-0.0458,-0.0469,-0.047,-0.047,-0.0471,0,-0.0207,-0.0207,-0.0231,-0.0246,-0.0265,-0.0281,-0.0333,-0.0371,-0.0409,-0.0417,-0.0413,-0.0446,-0.0421,-0.0418,-0.0422,-0.0366,-0.0403,-0.0426,-0.0442,-0.0413,-0.045,-0.0451,-0.0463,-0.0465,-0.0466,-0.0467,0,0,-0.0176,-0.0208,-0.0218,-0.0197,-0.024,-0.0248,-0.0287,-0.0298,-0.0275,-0.0353,-0.0316,-0.0321,-0.0303,-0.0292,-0.0281,-0.0299,-0.0293,-0.0345,-0.0348,-0.0358,-0.0347,-0.0302,-0.03,-0.0318,-0.0317,-0.0317,-0.0383,0,-0.0154,-0.0144,-0.0174,-0.0151,-0.0147,-0.0192,-0.0205,-0.021,-0.0238,-0.0232,-0.0245,-0.0206,-0.0263,-0.0211,-0.0238,-0.027,-0.0292,-0.0274,-0.0388,-0.0391,-0.0341,-0.0298,-0.0353,-0.0409,-0.0384,-0.0384,-0.0385,0,-0.0155,-0.0127,-0.0095,-0.0064,-0.0071,-0.0066,-0.0054,-0.0058,-0.0057,-0.0071,-0.0046,-0.0051,-0.0033,-0.0105,-0.0181,-0.0171,-0.0244,-0.0308,-0.0312,-0.0301,-0.0347,-0.0436,-0.0413,-0.0387,-0.0387,-0.0387,-0.0387,0,-0.01,-0.009,-0.0042,-0.0037,-0.0009,-0.0009,-0.0005,0.0001,0.0035,0.0059,0.0114,0.0089,0.0113,-0.0005,-0.0121,-0.0148,-0.024,-0.029,-0.0331,-0.0331,-0.0413,-0.0418,-0.0355,-0.0355,-0.0355,-0.0355,-0.0354,0,-0.007,-0.0037,-0.0014,0.0022,0.0087,0.0074,0.0148,0.0132,0.0187,0.0291,0.0236,0.0301,0.0135,0.0072,-0.0077,-0.0194,-0.0205,-0.0306,-0.0331,-0.0382,-0.0384,-0.0396,-0.04,-0.0357,-0.0356,-0.0356,-0.0356,0,-0.0027,-0.0019,0.0045,0.0095,0.0114,0.0157,0.023,0.0308,0.0332,0.0461,0.049,0.0465,0.0376,0.0199,0.002,-0.0098,-0.024,-0.0282,-0.0329,-0.0356,-0.0341,-0.034,-0.0336,-0.0335,-0.0333,-0.0332,-0.0332,0,0.0003,0.0049,0.0111,0.0165,0.0184,0.0257,0.0333,0.0367,0.0472,0.0571,0.0661,0.0615,0.0566,0.0311,0.008,-0.017,-0.0193,-0.0317,-0.036,-0.0307,-0.0333,-0.0334,-0.0334,-0.0457,-0.0458,-0.0458,-0.0458,0,0.0107,0.0109,0.0172,0.0269,0.034,0.0459,0.0562,0.0653,0.0744,0.0829,0.0918,0.0864,0.0616,0.0326,0.0019,-0.0141,-0.0284,-0.0323,-0.0265,-0.0422,-0.0418,-0.0444,-0.0442,-0.046,-0.046,-0.046,-0.046,-0.046,0.0181,0.0234,0.0308,0.0396,0.0491,0.0653,0.0771,0.0897,0.1045,0.1122,0.1018,0.0878,0.0551,0.01,-0.0106,-0.0268,-0.0273,-0.0382,-0.0384,-0.0385,-0.0355,-0.0346,-0.0372,-0.0371,-0.037,-0.037,-0.0369,0,0.0273,0.0347,0.0452,0.0567,0.0694,0.0722,0.0947,0.1067,0.1243,0.1159,0.1097,0.0667,0.0322,0.0056,-0.0212,-0.0389,-0.0435,-0.0415,-0.0479,-0.0477,-0.0475,-0.0451,-0.0493,-0.0493,-0.0493,-0.0493,0,0,0.0336,0.0455,0.0514,0.0737,0.0827,0.1045,0.1181,0.1327,0.1338,0.119,0.1002,0.0629,0.031,0.0066,-0.02,-0.031,-0.0327,-0.0326,-0.0224,-0.0268,-0.0262,-0.0471,-0.0433,0,0,0,0,0]}],[{"header":{"parameterUnit":"m.s-1","parameterCategory":2,"la1":30.2991,"la2":30.254,"lo1":-89.0895,"lo2":-89.0444,"dy":0.0017,"dx":0.0017,"nx":28,"ny":28,"refTime":"2023-08-09T03:00:00:Z","depth":"4","parameterNumber":2,"parameterNumberName":"U-component_of_CURRENTS"},"data":[0,0,0,0,0,0,0,0,0,0,0,0,0,0,0,0,0,0,0,0,0,0,0,0,0,0,0,0,0,0,0,0,0,0,0,0,0,0,0,0,0,0,0,0,0,0,0,0,0,0,0,0,0,0,0,0,0,0,-0.02,-0.0199,0,-0.02,-0.0201,-0.0202,-0.0222,-0.0222,-0.0221,-0.0221,-0.0288,-0.029,-0.0292,0,0,0,0,0,0,0,0,0,0,0,0,0,-0.0274,-0.0273,-0.02,-0.0199,-0.0198,-0.02,-0.0201,-0.0202,-0.0222,-0.0222,-0.0221,-0.0221,-0.0287,-0.029,-0.0292,0,0,0,0,0,0,0,0,0,0,0,0,0,-0.0263,-0.0273,-0.02,-0.0202,-0.0202,-0.02,-0.0201,-0.0202,-0.0222,-0.0222,-0.0221,-0.0221,-0.0287,-0.029,-0.0293,-0.0319,0,0,-0.0302,-0.0303,0,0,0,0,0,0,0,0,-0.0264,-0.0261,-0.0203,-0.0202,-0.0201,-0.0203,-0.0251,-0.0242,-0.0222,-0.0223,-0.0221,-0.0221,-0.0261,-0.0266,-0.0278,-0.0323,-0.0325,-0.0302,-0.0304,-0.0305,-0.0306,0,0,0,0,0,0,0,-0.0264,-0.0262,-0.0209,-0.0202,-0.0201,-0.0222,-0.0221,-0.025,-0.0252,-0.0223,-0.0223,-0.0209,-0.0262,-0.0275,-0.028,-0.0326,-0.0302,-0.0305,-0.0307,-0.0308,-0.0379,-0.0379,0,0,0,0,0,0,-0.0244,-0.0262,-0.0208,-0.0208,-0.0222,-0.022,-0.0219,-0.021,-0.025,-0.0253,-0.0209,-0.021,-0.027,-0.0276,-0.0282,-0.0343,-0.0305,-0.0308,-0.031,-0.0379,-0.0379,-0.0379,0,0,0,0,0,0,-0.0246,-0.024,-0.0208,-0.0228,-0.0224,-0.0218,-0.0209,-0.021,-0.022,-0.0237,-0.0243,-0.0217,-0.027,-0.0278,-0.0327,-0.0344,-0.031,-0.0312,-0.0378,-0.0379,-0.0379,-0.0446,0,0,0,0,0,0,-0.0248,-0.024,-0.0232,-0.0227,-0.0222,-0.0202,-0.0208,-0.021,-0.0208,-0.021,-0.0246,-0.0252,-0.027,-0.0323,-0.033,-0.0348,-0.0315,-0.0378,-0.0379,-0.0379,-0.0444,-0.0449,-0.0453,0,0,0,0,0,-0.0251,-0.0237,-0.0231,-0.0224,-0.0209,-0.0201,-0.0202,-0.0203,-0.0209,-0.0213,-0.0254,-0.025,-0.0327,-0.0327,-0.0335,-0.0354,-0.0378,-0.0378,-0.0379,-0.0442,-0.0448,-0.0453,0,0,0,0,0,0,-0.027,-0.0237,-0.0231,-0.0209,-0.0201,-0.0201,-0.0201,-0.0203,-0.0238,-0.025,-0.0274,-0.0283,-0.0321,-0.0325,-0.0324,-0.0367,-0.0343,-0.0344,-0.0388,-0.0393,-0.0397,-0.0363,-0.0317,0,0,0,0,0,-0.0266,-0.0244,-0.0225,-0.0208,-0.0205,-0.0206,-0.0204,-0.0208,-0.0229,-0.0243,-0.0274,-0.0302,-0.0328,-0.0352,-0.037,-0.0415,-0.0379,-0.0421,-0.0425,-0.0429,-0.0403,-0.043,-0.0435,-0.0379,-0.0379,-0.0379,0,0,-0.027,-0.0245,-0.0235,-0.0209,-0.021,-0.0202,-0.0207,-0.0208,-0.0216,-0.0247,-0.0289,-0.0319,-0.0339,-0.0384,-0.04,-0.0396,-0.0412,-0.0429,-0.0433,-0.0404,-0.0431,-0.0436,-0.0441,-0.0379,-0.0379,-0.0379,0,0,-0.026,-0.0247,-0.0226,-0.0222,-0.0208,-0.0204,-0.0202,-0.0214,-0.0237,-0.0285,-0.0299,-0.0334,-0.0395,-0.0404,-0.0418,-0.045,-0.0428,-0.0461,-0.0476,-0.0504,-0.0509,-0.0513,-0.042,-0.0415,-0.0475,-0.0476,-0.0476,0,-0.0267,-0.0234,-0.0222,-0.0209,-0.0205,-0.0202,-0.0198,-0.0216,-0.0249,-0.0266,-0.0302,-0.0361,-0.0393,-0.0414,-0.0445,-0.0459,-0.0444,-0.0466,-0.0512,-0.0516,-0.0519,-0.0423,-0.0417,-0.0479,-0.0478,-0.0478,-0.0478,0,-0.025,-0.0226,-0.0219,-0.0193,-0.0193,-0.019,-0.0202,-0.0212,-0.0248,-0.0273,-0.0318,-0.0376,-0.0404,-0.0428,-0.0468,-0.0496,-0.0463,-0.0512,-0.0505,-0.0529,-0.0425,-0.0417,-0.0483,-0.0482,-0.0481,-0.048,0,0,-0.0259,-0.0213,-0.0211,-0.0197,-0.019,-0.0186,-0.0193,-0.0196,-0.0194,-0.0263,-0.0274,-0.0359,-0.0393,-0.0407,-0.0447,-0.0489,-0.0507,-0.0535,-0.0535,-0.0448,-0.0499,-0.0426,-0.041,-0.0607,-0.0608,-0.0608,-0.0396,0,-0.0249,-0.0206,-0.0198,-0.0176,-0.0159,-0.0164,-0.0166,-0.0176,-0.0208,-0.0221,-0.0277,-0.0317,-0.0385,-0.0422,-0.0475,-0.0503,-0.0502,-0.0553,-0.048,-0.0473,-0.0417,-0.0406,-0.061,-0.0391,-0.0389,-0.0388,-0.0387,0,-0.0237,-0.0202,-0.0176,-0.0148,-0.0147,-0.0143,-0.0131,-0.0142,-0.0151,-0.0188,-0.0226,-0.027,-0.0311,-0.0391,-0.0416,-0.0464,-0.0479,-0.0493,-0.0487,-0.0389,-0.0391,-0.0373,-0.0373,-0.0375,-0.0376,-0.0376,-0.0377,0,-0.023,-0.0192,-0.0166,-0.0164,-0.0133,-0.0133,-0.0129,-0.0132,-0.014,-0.0165,-0.0166,-0.0221,-0.024,-0.0303,-0.034,-0.0407,-0.0336,-0.0421,-0.0324,-0.0313,-0.0413,-0.0411,-0.0418,-0.0418,-0.0418,-0.0419,-0.042,0,-0.0217,-0.0197,-0.016,-0.0147,-0.0122,-0.0129,-0.0119,-0.0115,-0.0116,-0.0106,-0.0161,-0.0142,-0.0247,-0.0225,-0.0281,-0.0242,-0.0279,-0.0284,-0.0272,-0.0434,-0.0438,-0.0403,-0.0404,-0.0411,-0.0413,-0.0414,-0.0416,0,-0.0212,-0.0186,-0.0155,-0.0124,-0.0114,-0.011,-0.0103,-0.009,-0.0095,-0.007,-0.0081,-0.0078,-0.0056,-0.0071,-0.0106,-0.0128,-0.0121,-0.009,-0.0141,-0.014,-0.0077,-0.0084,0.004,0.0044,0.0047,0.005,0.0052,0,-0.0207,-0.0181,-0.0139,-0.0119,-0.0109,-0.0097,-0.0077,-0.0083,-0.0068,-0.0021,0.0005,0.005,0.0049,0.0137,0.007,0.0087,0.0042,0.0098,-0.0109,-0.0038,-0.0039,-0.0051,-0.0062,0.0058,0.0058,0.0059,0.006,0,-0.0194,-0.0181,-0.0154,-0.0104,-0.0084,-0.0051,-0.003,-0.0011,-0.0002,0.0007,0.0088,0.0116,0.0195,0.0181,0.0232,0.0203,0.0067,0.013,0.012,-0.0074,-0.0016,-0.0022,-0.0037,0.0072,0.007,0.0069,0.0068,0,-0.0195,-0.0177,-0.0138,-0.0098,-0.0059,-0.001,-0.0004,0.0039,0.0058,0.0103,0.0143,0.0195,0.0215,0.0252,0.0277,0.0286,0.0225,0.0175,0.016,0.0148,0.0069,0.0152,0.0331,0,0,0,0,0,-0.0191,-0.0167,-0.0128,-0.0073,-0.003,-0.0003,0.0036,0.0041,0.0066,0.0129,0.013,0.0195,0.025,0.0278,0.0298,0.0297,0.0216,0.0319,0.0146,0.0136,0.0122,0.0011,0,0,0,0,0,0,-0.0184,-0.0163,-0.013,-0.0058,-0.0013,0.0039,0.0066,0.0085,0.0117,0.0142,0.0174,0.0195,0.0245,0.0239,0.0298,0.0304,0.0195,0.0343,0.0344,0.0143,0.0131,0.012,0.0001,0,0,0,0,0]},{"header":{"parameterUnit":"m.s-1","parameterCategory":2,"la1":30.2991,"la2":30.254,"lo1":-89.0895,"lo2":-89.0444,"dy":0.0017,"dx":0.0017,"nx":28,"ny":28,"refTime":"2023-08-09T03:00:00:Z","depth":"4","parameterNumber":3,"parameterNumberName":"V-component_of_CURRENTS"},"data":[0,0,0,0,0,0,0,0,0,0,0,0,0,0,0,0,0,0,0,0,0,0,0,0,0,0,0,0,0,0,0,0,0,0,0,0,0,0,0,0,0,0,0,0,0,0,0,0,0,0,0,0,0,0,0,0,0,0,-0.0113,-0.0113,0,-0.0119,-0.0119,-0.012,-0.0118,-0.0117,-0.0117,-0.0117,-0.016,-0.0162,-0.0163,0,0,0,0,0,0,0,0,0,0,0,0,0,-0.0085,-0.0086,-0.0113,-0.0113,-0.0112,-0.0119,-0.0119,-0.012,-0.0118,-0.0117,-0.0117,-0.0116,-0.016,-0.0161,-0.0163,0,0,0,0,0,0,0,0,0,0,0,0,0,-0.0098,-0.0086,-0.0113,-0.011,-0.011,-0.0119,-0.0119,-0.012,-0.0118,-0.0117,-0.0117,-0.0116,-0.0159,-0.0161,-0.0163,-0.019,0,0,-0.0171,-0.0172,0,0,0,0,0,0,0,0,-0.0097,-0.0099,-0.0111,-0.011,-0.011,-0.0114,-0.0125,-0.0144,-0.0118,-0.0118,-0.0117,-0.0116,-0.0147,-0.015,-0.0156,-0.0192,-0.0194,-0.0171,-0.0172,-0.0173,-0.0174,0,0,0,0,0,0,0,-0.0096,-0.0099,-0.0118,-0.011,-0.011,-0.0103,-0.0105,-0.0129,-0.0139,-0.0118,-0.0117,-0.0113,-0.0147,-0.0154,-0.0157,-0.0194,-0.0171,-0.0173,-0.0174,-0.0175,-0.0326,-0.0329,0,0,0,0,0,0,-0.0091,-0.0098,-0.0118,-0.0118,-0.0098,-0.0104,-0.0106,-0.0116,-0.0138,-0.0139,-0.0114,-0.0113,-0.015,-0.0155,-0.0159,-0.0243,-0.0173,-0.0175,-0.0177,-0.0323,-0.0327,-0.0329,0,0,0,0,0,0,-0.0091,-0.0093,-0.0118,-0.0105,-0.0107,-0.0105,-0.0116,-0.0116,-0.0121,-0.0133,-0.0136,-0.0118,-0.015,-0.0156,-0.0206,-0.0243,-0.0176,-0.0178,-0.032,-0.0324,-0.0328,-0.0379,0,0,0,0,0,0,-0.009,-0.0094,-0.0098,-0.0105,-0.0107,-0.0129,-0.0117,-0.0117,-0.0118,-0.0118,-0.0138,-0.0141,-0.015,-0.0203,-0.0208,-0.0245,-0.018,-0.0317,-0.0322,-0.0327,-0.0374,-0.0385,-0.0393,0,0,0,0,0,-0.0089,-0.0104,-0.0099,-0.0101,-0.0115,-0.0129,-0.0131,-0.0129,-0.0119,-0.013,-0.0158,-0.0141,-0.0238,-0.0207,-0.0213,-0.0251,-0.0315,-0.0321,-0.0326,-0.037,-0.0383,-0.0393,0,0,0,0,0,0,-0.0095,-0.0105,-0.01,-0.0116,-0.0122,-0.0128,-0.0133,-0.013,-0.0158,-0.0166,-0.0171,-0.0178,-0.0241,-0.0242,-0.0207,-0.0313,-0.0275,-0.0282,-0.0306,-0.0318,-0.0327,-0.0327,-0.0182,0,0,0,0,0,-0.0097,-0.0113,-0.0116,-0.0129,-0.013,-0.0131,-0.0134,-0.0142,-0.0163,-0.0173,-0.0187,-0.0221,-0.0272,-0.0289,-0.0329,-0.0377,-0.0359,-0.0409,-0.0418,-0.0426,-0.0433,-0.0443,-0.0453,-0.0349,-0.0349,-0.0349,0,0,-0.0103,-0.0109,-0.0118,-0.0131,-0.0133,-0.015,-0.0133,-0.0152,-0.0182,-0.0176,-0.0224,-0.0256,-0.0295,-0.0362,-0.0389,-0.0364,-0.0447,-0.0434,-0.044,-0.0442,-0.0451,-0.046,-0.0469,-0.0353,-0.0352,-0.0351,0,0,-0.0121,-0.0127,-0.0142,-0.0152,-0.0162,-0.017,-0.0174,-0.019,-0.0212,-0.0272,-0.0282,-0.0334,-0.0397,-0.0429,-0.0457,-0.0542,-0.0503,-0.0556,-0.0595,-0.0605,-0.0613,-0.0619,-0.06,-0.0604,-0.0553,-0.0553,-0.0553,0,-0.0121,-0.0145,-0.0148,-0.0164,-0.0178,-0.0178,-0.0203,-0.023,-0.0265,-0.0295,-0.0302,-0.041,-0.0436,-0.0512,-0.0553,-0.0561,-0.0548,-0.0542,-0.0614,-0.062,-0.0626,-0.0605,-0.0609,-0.0557,-0.0556,-0.0556,-0.0556,0,-0.015,-0.0168,-0.0179,-0.0202,-0.0221,-0.0246,-0.0277,-0.0301,-0.0334,-0.037,-0.0458,-0.0506,-0.0564,-0.0588,-0.0606,-0.0667,-0.0637,-0.0626,-0.0574,-0.0639,-0.0613,-0.0616,-0.0561,-0.056,-0.0559,-0.0558,0,0,-0.0154,-0.019,-0.0195,-0.0209,-0.0249,-0.0266,-0.032,-0.037,-0.0403,-0.0471,-0.0527,-0.0634,-0.065,-0.0683,-0.0698,-0.0714,-0.0748,-0.0693,-0.0692,-0.0655,-0.0749,-0.0702,-0.07,-0.0743,-0.0745,-0.0746,-0.0709,0,-0.0171,-0.0204,-0.0232,-0.0274,-0.029,-0.032,-0.0366,-0.042,-0.0475,-0.0528,-0.0598,-0.067,-0.0689,-0.0721,-0.0748,-0.075,-0.0762,-0.0758,-0.0709,-0.0707,-0.0643,-0.0705,-0.075,-0.0711,-0.0711,-0.0712,-0.0712,0,-0.0192,-0.0209,-0.0252,-0.0301,-0.0313,-0.0349,-0.041,-0.0464,-0.0542,-0.059,-0.0666,-0.0707,-0.077,-0.077,-0.0803,-0.0796,-0.0789,-0.078,-0.0778,-0.072,-0.0668,-0.0639,-0.0718,-0.0717,-0.0717,-0.0716,-0.0716,0,-0.0186,-0.0229,-0.0263,-0.0281,-0.0335,-0.0369,-0.0412,-0.0486,-0.0533,-0.0629,-0.0657,-0.0743,-0.0771,-0.0796,-0.0793,-0.0804,-0.0794,-0.0798,-0.0744,-0.0738,-0.0762,-0.0756,-0.082,-0.082,-0.082,-0.0821,-0.0821,0,-0.0198,-0.0226,-0.0259,-0.028,-0.0322,-0.0376,-0.044,-0.0489,-0.0564,-0.0603,-0.0691,-0.0703,-0.078,-0.078,-0.0791,-0.0767,-0.079,-0.0762,-0.0738,-0.0785,-0.0782,-0.0763,-0.0757,-0.0819,-0.0819,-0.082,-0.082,0,-0.02,-0.0221,-0.0254,-0.0303,-0.0322,-0.0362,-0.0441,-0.0478,-0.055,-0.0592,-0.0621,-0.0679,-0.0684,-0.0721,-0.0735,-0.0741,-0.0734,-0.0712,-0.0736,-0.0711,-0.0673,-0.0671,-0.0676,-0.0674,-0.0673,-0.0672,-0.0671,0,-0.0209,-0.0223,-0.0261,-0.0274,-0.0304,-0.036,-0.0391,-0.0472,-0.0498,-0.0547,-0.0547,-0.0578,-0.0606,-0.0586,-0.0636,-0.0657,-0.0658,-0.0656,-0.0713,-0.0689,-0.0664,-0.0664,-0.0663,-0.0668,-0.0668,-0.0668,-0.0667,0,-0.0222,-0.0232,-0.0255,-0.0269,-0.0298,-0.0332,-0.0378,-0.0385,-0.0451,-0.0491,-0.0477,-0.0506,-0.0501,-0.0542,-0.0557,-0.057,-0.0673,-0.0642,-0.0646,-0.07,-0.068,-0.0657,-0.0658,-0.0662,-0.0663,-0.0663,-0.0664,0,-0.0231,-0.0239,-0.0254,-0.0267,-0.029,-0.0304,-0.0333,-0.0346,-0.038,-0.0418,-0.0388,-0.0424,-0.0454,-0.049,-0.049,-0.052,-0.0546,-0.0567,-0.0576,-0.0582,-0.0579,-0.0541,-0.0469,0,0,0,0,0,-0.0234,-0.0242,-0.0252,-0.0264,-0.0278,-0.0291,-0.0318,-0.034,-0.036,-0.0339,-0.0375,-0.0368,-0.0406,-0.0423,-0.0445,-0.0479,-0.0558,-0.0506,-0.0589,-0.0635,-0.0641,-0.065,0,0,0,0,0,0,-0.0242,-0.0253,-0.0249,-0.025,-0.0252,-0.0274,-0.0287,-0.0302,-0.0295,-0.0312,-0.0328,-0.0357,-0.0394,-0.0383,-0.0436,-0.0448,-0.0501,-0.0532,-0.0532,-0.0632,-0.0637,-0.0641,-0.0653,0,0,0,0,0]}]]